THORAD AGENA D DEB, 4921

Orbit data source: Space-Track

THORAD AGENA D DEB, 4921 is space debris in SSO originally from a launch on Wed, 08 Apr 1970 UTC launched from the Air Force Western Test Range (AFWTR). Debris objects in space refer to the collection of defunct objects orbiting the Earth. Examples of debris include non-operational satellites, rocket bodies, and fragments generated from explosions, collisions, or faulty payload assembly.

Loading next visibility...
Identifier
4921, 1970-025FT
Orbit
SSO
Country
Flag of USUS
Related business
Manufacturer
Unknown
Mission
Spacecraft
Bus & Motor
Unknown
Mass
Unknown
Launch date (UTC)
1970-04-08 (56 years ago)
Launch vehicle
Unknown
Launch site
Air Force Western Test Range (AFWTR)
Object type
Payload
Rocket body
Debris
Shape & HBR
Unknown shape, 0.1 m
Radar Cross Section
Small (<0.1 m²)

Expand to show TLE details & history
Last TLE update: 13 hours ago

TLE from 13 hours ago
0 THORAD AGENA D DEB
1 04921U 70025FT  25287.23942445  .00009655  00000-0  24362-2 0  9991
2 04921  99.7226  57.3842 0040081  90.2677 270.3106 14.50824457839869
Epoch: 2025-10-14T05:44Z
TLE epoch observation values (Epoch: 2025-10-14T05:44:46.272Z)
Latitude
-0.00002°
Longitude
-51.8393°
Altitude
725.839 km
Speed
7.492 km/s
True Right ascension
03h 49m 32s
True Declination
0° 00' 00"
Sunlit
Object was in full shadow at epoch
Visualization orbit readout
Latitude
Unknown
Longitude
Unknown
Altitude
Unknown
Speed
Unknown
Apparent Right ascension
Unknown
Apparent Declination
Unknown
Sunlit
N/A
Visualization observer readout
Local Sidereal Time
12:54:19
Azimuth
Unknown
Elevation
Unknown
Doppler factor
Unknown
Orbital elements
Apogee altitude
748.577 km
Perigee altitude
691.676 km
Semi-major axis
7,098.263 km
Eccentricity
0.00401
Inclination
99.7226°
RAAN
57.3842°
Arg. of periapsis
90.2677°
True anomaly
269.8513°
Mean anomaly
270.3106°
Eccentric anomaly
270.08095°
Mean motion
3.62923 °/min
Orbital period
99.19 mins
BSTAR
0.0024362

Documentation

Showing up to 5 results
|